When you browse on this site, cookies collect data to enhance your experience and personalize the content and advertising you see.
Visit our Privacy Policy to learn more. By continuing to use the site, you agree to this use of cookies and data.
  • Em Portugal
  • Lista de países
  • Para 7 dias
  • Temperatura da água
  • Mapa do tempo
  • Widgets de tempo
  • user-avatar
    Iniciar Sessão

    Previsão horária em Aksel

    Hoje, 23 Setembro, Segunda-feira

    Tempo Temperatura Precipitação Vento Pressão Humidade
    00:00 0°C° 0.5 mm 7 m/s 733 mmHg 94%
    01:00 0°C° 0 mm 7 m/s 734 mmHg 93%
    02:00 +1°C° 0 mm 6 m/s 735 mmHg 92%
    03:00 +1°C° 0 mm 4 m/s 736 mmHg 91%
    04:00 +1°C° 0.2 mm 5 m/s 737 mmHg 91%
    05:00 +1°C° 0.2 mm 5 m/s 737 mmHg 91%
    06:00 +1°C° 0.2 mm 6 m/s 738 mmHg 91%
    07:00 +1°C° 0 mm 6 m/s 739 mmHg 88%
    08:00 +1°C° 0 mm 6 m/s 740 mmHg 84%
    09:00 +1°C° 0 mm 5 m/s 741 mmHg 81%
    10:00 +1°C° 0 mm 5 m/s 741 mmHg 83%
    11:00 +1°C° 0 mm 6 m/s 741 mmHg 85%
    12:00 +1°C° 0 mm 6 m/s 741 mmHg 87%
    13:00 +1°C° 0.1 mm 6 m/s 742 mmHg 88%
    14:00 +1°C° 0.1 mm 6 m/s 742 mmHg 89%
    15:00 +2°C° 0 mm 5 m/s 742 mmHg 89%
    16:00 +2°C° 0.4 mm 5 m/s 743 mmHg 88%
    17:00 +2°C° 0.4 mm 5 m/s 743 mmHg 88%
    18:00 +2°C° 0.4 mm 5 m/s 743 mmHg 87%
    19:00 +1°C° 0.1 mm 5 m/s 744 mmHg 88%
    20:00 +1°C° 0.1 mm 5 m/s 744 mmHg 90%
    21:00 0°C° 0.1 mm 4 m/s 744 mmHg 91%
    22:00 0°C° 0 mm 4 m/s 744 mmHg 91%
    23:00 0°C° 0 mm 4 m/s 745 mmHg 92%

    Amanhã, 24 Setembro, Terça-feira

    Tempo Temperatura Precipitação Vento Pressão Humidade
    00:00 0°C° 0 mm 4 m/s 745 mmHg 92%
    01:00 0°C° 0 mm 4 m/s 745 mmHg 92%
    02:00 0°C° 0 mm 4 m/s 746 mmHg 93%
    03:00 0°C° 0 mm 4 m/s 746 mmHg 93%
    04:00 0°C° 0 mm 4 m/s 746 mmHg 93%
    05:00 0°C° 0 mm 4 m/s 746 mmHg 92%
    06:00 +1°C° 0 mm 3 m/s 746 mmHg 92%
    07:00 +1°C° 0 mm 3 m/s 747 mmHg 90%
    08:00 +2°C° 0 mm 3 m/s 747 mmHg 89%
    09:00 +2°C° 0 mm 3 m/s 747 mmHg 88%
    10:00 +3°C° 0 mm 3 m/s 747 mmHg 82%
    11:00 +4°C° 0 mm 3 m/s 747 mmHg 77%
    12:00 +5°C° 0 mm 4 m/s 747 mmHg 72%
    13:00 +5°C° 0.2 mm 4 m/s 747 mmHg 70%
    14:00 +6°C° 0.2 mm 4 m/s 747 mmHg 69%
    15:00 +6°C° 0.2 mm 4 m/s 747 mmHg 67%
    16:00 +5°C° 0.2 mm 3 m/s 747 mmHg 73%
    17:00 +5°C° 0.2 mm 2 m/s 747 mmHg 80%
    18:00 +4°C° 0.2 mm 2 m/s 747 mmHg 86%
    19:00 +3°C° 0 mm 2 m/s 747 mmHg 88%
    20:00 +3°C° 0 mm 1 m/s 748 mmHg 90%
    21:00 +2°C° 0 mm 1 m/s 748 mmHg 92%
    22:00 +2°C° 0 mm 1 m/s 748 mmHg 92%
    23:00 -1°C° 0 mm 2 m/s 748 mmHg 92%

    Depois de amanhã, 25 Setembro, Quarta-feira

    Tempo Temperatura Precipitação Vento Pressão Humidade
    00:00 -1°C° 0 mm 2 m/s 748 mmHg 92%
    01:00 -1°C° 0 mm 2 m/s 748 mmHg 93%
    02:00 -2°C° 0 mm 2 m/s 748 mmHg 93%
    03:00 -2°C° 0 mm 2 m/s 748 mmHg 94%
    04:00 -2°C° 0 mm 2 m/s 748 mmHg 95%
    05:00 -2°C° 0 mm 2 m/s 749 mmHg 95%
    06:00 -2°C° 0 mm 2 m/s 749 mmHg 96%
    07:00 -1°C° 0 mm 2 m/s 749 mmHg 90%
    08:00 +2°C° 0 mm 2 m/s 749 mmHg 85%
    09:00 +3°C° 0 mm 2 m/s 749 mmHg 79%
    10:00 +4°C° 0 mm 2 m/s 749 mmHg 73%
    11:00 +4°C° 0 mm 3 m/s 749 mmHg 68%
    12:00 +5°C° 0 mm 3 m/s 749 mmHg 62%
    13:00 +7°C° 0.1 mm 3 m/s 749 mmHg 62%
    14:00 +7°C° 0.1 mm 3 m/s 749 mmHg 62%
    15:00 +7°C° 0.1 mm 3 m/s 749 mmHg 61%
    16:00 +5°C° 0.1 mm 3 m/s 749 mmHg 67%
    17:00 +5°C° 0.1 mm 2 m/s 749 mmHg 72%
    18:00 +4°C° 0.1 mm 2 m/s 749 mmHg 78%
    19:00 +4°C° 0 mm 1 m/s 749 mmHg 80%
    20:00 +3°C° 0 mm 1 m/s 749 mmHg 83%
    21:00 +3°C° 0 mm 1 m/s 749 mmHg 85%
    22:00 +2°C° 0 mm 1 m/s 749 mmHg 87%
    23:00 +2°C° 0 mm 1 m/s 749 mmHg 89%

    26 Setembro, Quinta-feira

    Tempo Temperatura Precipitação Vento Pressão Humidade
    00:00 +2°C° 0 mm 1 m/s 749 mmHg 90%
    01:00 +2°C° 0 mm 1 m/s 749 mmHg 91%
    02:00 +2°C° 0 mm 1 m/s 749 mmHg 92%
    03:00 +1°C° 0 mm 1 m/s 749 mmHg 93%
    04:00 +1°C° 0 mm 1 m/s 749 mmHg 93%
    05:00 +1°C° 0 mm 1 m/s 749 mmHg 94%
    06:00 0°C° 0 mm 1 m/s 749 mmHg 94%
    07:00 +2°C° 0 mm 1 m/s 750 mmHg 88%
    08:00 +4°C° 0 mm 1 m/s 750 mmHg 81%
    09:00 +4°C° 0 mm 2 m/s 750 mmHg 75%
    10:00 +5°C° 0 mm 2 m/s 750 mmHg 68%
    11:00 +7°C° 0 mm 3 m/s 750 mmHg 61%
    12:00 +8°C° 0 mm 3 m/s 750 mmHg 54%
    13:00 +8°C° 0 mm 3 m/s 750 mmHg 54%
    14:00 +8°C° 0 mm 3 m/s 749 mmHg 53%
    15:00 +7°C° 0 mm 4 m/s 749 mmHg 53%
    16:00 +7°C° 0 mm 3 m/s 749 mmHg 60%
    17:00 +6°C° 0 mm 2 m/s 749 mmHg 66%
    18:00 +4°C° 0 mm 2 m/s 749 mmHg 73%
    19:00 +4°C° 0 mm 2 m/s 749 mmHg 76%
    20:00 +4°C° 0 mm 1 m/s 749 mmHg 79%
    21:00 +4°C° 0 mm 1 m/s 749 mmHg 81%
    22:00 +4°C° 0 mm 1 m/s 749 mmHg 82%
    23:00 +3°C° 0 mm 2 m/s 749 mmHg 83%

    27 Setembro, Sexta-feira

    Tempo Temperatura Precipitação Vento Pressão Humidade
    00:00 +3°C° 0 mm 2 m/s 749 mmHg 84%
    01:00 +3°C° 0 mm 2 m/s 748 mmHg 86%
    02:00 +3°C° 0 mm 2 m/s 748 mmHg 88%
    03:00 +2°C° 0 mm 2 m/s 748 mmHg 89%
    04:00 +2°C° 0 mm 2 m/s 748 mmHg 91%
    05:00 +1°C° 0 mm 2 m/s 748 mmHg 93%
    06:00 +1°C° 0 mm 2 m/s 748 mmHg 95%
    07:00 +1°C° 0 mm 3 m/s 748 mmHg 88%
    08:00 +3°C° 0 mm 3 m/s 747 mmHg 81%
    09:00 +4°C° 0 mm 3 m/s 747 mmHg 74%
    10:00 +5°C° 0 mm 4 m/s 747 mmHg 71%
    11:00 +6°C° 0 mm 4 m/s 747 mmHg 68%
    12:00 +7°C° 0 mm 5 m/s 747 mmHg 66%
    13:00 +6°C° 0.3 mm 4 m/s 747 mmHg 74%
    14:00 +5°C° 0.3 mm 4 m/s 747 mmHg 81%
    15:00 +4°C° 0.3 mm 4 m/s 746 mmHg 89%
    16:00 +4°C° 0.1 mm 4 m/s 746 mmHg 91%
    17:00 +4°C° 0.1 mm 3 m/s 747 mmHg 92%
    18:00 +4°C° 0.1 mm 3 m/s 747 mmHg 93%
    19:00 +4°C° 0 mm 3 m/s 747 mmHg 94%
    20:00 +5°C° 0 mm 2 m/s 747 mmHg 95%
    21:00 +6°C° 0 mm 2 m/s 747 mmHg 95%
    22:00 +5°C° 0 mm 2 m/s 748 mmHg 96%
    23:00 +5°C° 0 mm 2 m/s 748 mmHg 96%

    28 Setembro, Sábado

    Tempo Temperatura Precipitação Vento Pressão Humidade
    00:00 +4°C° 0 mm 2 m/s 748 mmHg 97%
    01:00 +4°C° 0 mm 2 m/s 748 mmHg 97%
    02:00 +4°C° 0 mm 2 m/s 749 mmHg 97%
    03:00 +3°C° 0 mm 2 m/s 749 mmHg 97%
    04:00 +2°C° 0 mm 2 m/s 749 mmHg 97%
    05:00 +2°C° 0 mm 2 m/s 749 mmHg 97%
    06:00 +1°C° 0 mm 2 m/s 749 mmHg 97%
    07:00 +2°C° 0 mm 2 m/s 750 mmHg 91%
    08:00 +3°C° 0 mm 2 m/s 750 mmHg 86%
    09:00 +4°C° 0 mm 2 m/s 750 mmHg 80%
    10:00 +5°C° 0 mm 2 m/s 750 mmHg 76%
    11:00 +6°C° 0 mm 2 m/s 751 mmHg 73%
    12:00 +6°C° 0 mm 2 m/s 751 mmHg 69%
    13:00 +6°C° 0 mm 2 m/s 751 mmHg 68%
    14:00 +5°C° 0 mm 3 m/s 751 mmHg 68%
    15:00 +5°C° 0 mm 3 m/s 751 mmHg 67%
    16:00 +5°C° 0 mm 3 m/s 751 mmHg 70%
    17:00 +5°C° 0 mm 2 m/s 751 mmHg 72%
    18:00 +5°C° 0 mm 2 m/s 751 mmHg 75%
    19:00 +4°C° 0 mm 2 m/s 751 mmHg 78%
    20:00 +3°C° 0 mm 2 m/s 752 mmHg 81%
    21:00 +3°C° 0 mm 1 m/s 752 mmHg 85%
    22:00 +2°C° 0 mm 1 m/s 752 mmHg 84%
    23:00 +2°C° 0 mm 1 m/s 752 mmHg 83%
    Mostrar mais